"Pseudo-MPEC" for C2UG7E2

Created 2020 May 23 12:07:05 UT using Find_Orb

Click here for an explanation of pseudo-MPECs

 
 Astrometry: 
     C2UG7E2  C2020 05 22.18961 10 24 48.25 +07 52 40.8    ~5M5M 20.3 GVNEOCPG96
     C2UG7E2  C2020 05 22.19481 10 24 56.31 +07 53 52.5    ~5M5M 19.9 GVNEOCPG96
     C2UG7E2  C2020 05 22.20001 10 25 04.08 +07 55 00.5    ~5M5M 19.5 GVNEOCPG96
     C2UG7E2  C2020 05 22.20522 10 25 12.01 +07 56 10.5    ~5M5M 19.7 GVNEOCPG96
     C2UG7E2  C2020 05 22.22315 10 25 39.50 +08 00 09.5    ~5M5q 20.2 GVNEOCPI52
     C2UG7E2  C2020 05 22.22372 10 25 40.40 +08 00 17.4    ~5M5q 19.2 GVNEOCPI52
     C2UG7E2  C2020 05 22.23374 10 25 56.02 +08 02 32.2    ~5M67 19.6 GVNEOCPI52
     C2UG7E2  C2020 05 22.23431 10 25 56.92 +08 02 39.5    ~5M67 19.5 GVNEOCPI52
     C2UG7E2  C2020 05 22.25482 10 26 29.41 +08 07 16.8    ~5M6b 20.2 GVNEOCPI52
     C2UG7E2  C2020 05 22.25539 10 26 30.32 +08 07 23.9    ~5M6b 20.6 GVNEOCPI52
     C2UG7E2  C2020 05 22.25595 10 26 31.23 +08 07 31.6    ~5M6b 20.3 GVNEOCPI52
     C2UG7E2  C2020 05 22.25652 10 26 32.14 +08 07 40.3    ~5M6b 19.4 GVNEOCPI52
     C2UG7E2 KC2020 05 22g%?.3M_:sy9r#t2?-^R?PU=]V9p)vAb;)PChDpg7BD1Tdmr2G(**104
     C2UG7E2 KC2020 05 228wT8ZP3CFMC_q9L.[Ks558\+dIRlS\_*7QdAeaA'4df_Wmm8g(-Y104
     C2UG7E2 KC2020 05 22d8wgEjt')$rZi:E*['?m$W:LJ2mR?p2#^WGX8P7Astrometry11Z104
     C2UG7E2 IC2020 05 22%Vd`redacted;]]:+LEhv25NQ;x=\Nfog`x'@#8^=OB2Z^^ZZlobL01
     C2UG7E2 NC2020 05 22w0`o(wCHl0?,.FLe^0]4,oHDS\$3Nsu][uf24XOSd76#8!`a/),bL01
     C2UG7E2 NC2020 05 22edOn^JclicktA_I-rgvherePpOo.)+ev`%H4_.PKr%?0)mRh9:)iL01
     C2UG7E2 NC2020 05 22ETs:y'R:`/bNnJ$?v)^-2+9TG,I+vn_ob!Ka\$Uv3=J'A(!e_%QkL01
     C2UG7E2 NC2020 05 22r+l$.wV\I7uZsy5of-?mfor(explanation!nf.%=SQ#EVew0BYZL01
     C2UG7E2 KC2020 05 22.91066710 48 08.61 +10 58 25.1    ~5MNM 19.2 GVNEOCPJ95
     C2UG7E2 KC2020 05 22.94557810 49 25.93 +11 08 47.7    ~5MNM 19.2 GVNEOCPJ95
     C2UG7E2 KC2020 05 22.95262610 49 41.78 +11 10 53.6    ~5MNM 19.6 GVNEOCPJ95
     C2UG7E2  C2020 05 23.15436 10 58 07.83 +12 18 26.7    ~5N47 19.8 GVNEOCPI52
     C2UG7E2  C2020 05 23.15486 10 58 08.96 +12 18 35.9    ~5N47 19.1 GVNEOCPI52
     C2UG7E2  C2020 05 23.15536 10 58 10.13 +12 18 45.7    ~5N47 18.8 GVNEOCPI52
     C2UG7E2  C2020 05 23.15585 10 58 11.36 +12 18 55.8    ~5N47       VNEOCPI52

Station data:
(104) San Marcello Pistoiese  (N44.063037 E10.804200)  Italy. 0.40-m f/5
   reflector.
(G96) Mt. Lemmon Survey  (N32.442754 W110.788720)  US/Arizona.  Observers T.
   A. Pruyne, B. M. Africano, E. J. Christensen, G. A. Farneth, D. C. Fuls,
   A. R. Gibbs, A. D. Grauer, H. Gröller, J. A. Johnson, R. A. Kowalski, S.
   M. Larson, G. J. Leonard, D. Rankin, R. L. Seaman, F. C. Shelly. 1.5-m
   reflector + 10K CCD.
(I52) Steward Observatory, Mt. Lemmon Station  (N32.442547 W110.788920)
   US/Arizona.  Observers T. A. Pruyne, B. M. Africano, E. J. Christensen, G.
   A. Farneth, D. C. Fuls, A. R. Gibbs, A. D. Grauer, H. Gröller, J. A.
   Johnson, R. A. Kowalski, S. M. Larson, G. J. Leonard, D. Rankin, R. L.
   Seaman, F. C. Shelly. 1.0-m reflector + CCD.
(J95) Great Shefford  (N51.474969 W1.447003)  UK.  Observer P. Birtwhistle.
   0.40-m f/6.0 Schmidt-Cassegrain + CCD.
(L01) Višnjan Observatory, Tičan  (N45.290900 E13.749300)  Croatia.
   Observers K. Korlević, E. Pettarin. Measurer E. Pettarin. 1.0-m f/2.9
   reflector + CCD.

Orbital elements:  C2UG7E2
   Perihelion 2020 May 14.655045 +/- 0.00774 TT = 15:43:15 (JD 2458984.155045)
Epoch 2020 May 23.0 TT = JDT 2458992.5   Earth MOID: 0.0017   AutoNEOCP
M   2.81324937 +/- 0.013            (J2000 ecliptic)
n   0.33711978 +/- 0.00127          Peri.  350.72669 +/- 0.0056
a   2.04462291 +/- 0.00514          Node   240.58653 +/- 0.0017
e   0.5062209 +/- 0.00124           Incl.    5.40896 +/- 0.008
P   2.92                   H 26.0   G  0.15   U  8.3  
q 1.00959186 +/- 2.4e-6    Q 3.07965396 +/- 0.0103
From 27 observations 2020 May 22-23 (23.2 hr); mean residual 0".56
Residuals in arcseconds: 
200522 G96  2.0-  1.2-    200522 I52  .12-  .50-    200522 L01  .76-  .08-    
200522 G96  1.6+  1.3+    200522 I52  .07+  .38-    200522 L01  .52+  .54+    
200522 G96  .23+  .04+    200522 I52  .00   .60+    200522 J95  .22+  .61-    
200522 G96  .48+  .53+    200522 104  .04+  .21-    200522 J95  .22+  .49+    
200522 I52  .32-  .41-    200522 104  .10+  .50+    200522 J95  .29-  .14+    
200522 I52  .08-  .16-    200522 104  .14+  .24-    200523 I52  .63+  .18+    
200522 I52  .05-  .02+    200522 L01  .01-  .02-    200523 I52  .32-  .45-    
200522 I52  .05+  .35-    200522 L01  1.1-  .56-    200523 I52  .68-  .47-    
200522 I52  .07-  .12+    200522 L01  .59-  .03+    200523 I52  .19+  .00     

Ephemerides (geocentric):
Date (UTC) HH   RA              Dec         delta   r     elong  mag " sig PA
---- -- -- --  -------------   -----------  ------ ------ -----  --- ---- ---
2020 05 23 12  11 14 41.930   +14 24 32.79  .01322 1.0153 101.3 19.4 .666 144
2020 05 23 13  11 16 52.669   +14 40 23.45  .01310 1.0154 101.6 19.4 .719 134
2020 05 23 14  11 19 06.322   +14 56 28.14  .01297 1.0154 101.9 19.3 .796 126
2020 05 23 15  11 21 22.962   +15 12 46.79  .01284 1.0155 102.3 19.3 .895 118
2020 05 23 16  11 23 42.662   +15 29 19.35  .01272 1.0155 102.6 19.3 1.02 111
2020 05 23 17  11 26 05.495   +15 46 05.70  .01260 1.0156 103.0 19.2 1.15 106
2020 05 23 18  11 28 31.538   +16 03 05.70  .01247 1.0156 103.3 19.2 1.31 102
2020 05 23 19  11 31 00.865   +16 20 19.17  .01235 1.0157 103.7 19.2 1.48  98
2020 05 23 20  11 33 33.552   +16 37 45.90  .01224 1.0158 104.1 19.1 1.67  95
2020 05 23 21  11 36 09.675   +16 55 25.62  .01212 1.0158 104.4 19.1 1.88  92
2020 05 23 22  11 38 49.310   +17 13 18.02  .01201 1.0159 104.8 19.1 2.10  90
2020 05 23 23  11 41 32.533   +17 31 22.75  .01189 1.0159 105.2 19.0 2.34  88
2020 05 24 00  11 44 19.418   +17 49 39.41  .01178 1.0160 105.6 19.0 2.59  87
2020 05 24 01  11 47 10.039   +18 08 07.51  .01167 1.0160 106.0 19.0 2.85  85
2020 05 24 02  11 50 04.470   +18 26 46.56  .01157 1.0161 106.4 18.9 3.14  84
2020 05 24 03  11 53 02.781   +18 45 35.94  .01146 1.0161 106.9 18.9 3.44  83
2020 05 24 04  11 56 05.041   +19 04 35.03  .01136 1.0162 107.3 18.9 3.75  83
2020 05 24 05  11 59 11.318   +19 23 43.10  .01126 1.0163 107.7 18.8 4.08  82
2020 05 24 06  12 02 21.674   +19 42 59.37  .01116 1.0163 108.2 18.8 4.43  81
2020 05 24 07  12 05 36.171   +20 02 22.97  .01106 1.0164 108.6 18.8 4.80  81
2020 05 24 08  12 08 54.865   +20 21 52.97  .01097 1.0164 109.1 18.7 5.18  80
2020 05 24 09  12 12 17.808   +20 41 28.35  .01088 1.0165 109.5 18.7 5.58  80
2020 05 24 10  12 15 45.046   +21 01 08.03  .01079 1.0166 110.0 18.7 5.99  80
2020 05 24 11  12 19 16.621   +21 20 50.83  .01070 1.0166 110.5 18.6 6.42  79
2020 05 24 12  12 22 52.567   +21 40 35.49  .01062 1.0167 110.9 18.6 6.87  79
2020 05 24 13  12 26 32.912   +22 00 20.69  .01054 1.0167 111.4 18.6 7.34  79
2020 05 24 14  12 30 17.674   +22 20 05.00  .01046 1.0168 111.9 18.5 7.82  79
2020 05 24 15  12 34 06.866   +22 39 46.93  .01038 1.0169 112.4 18.5 8.32  79
2020 05 24 16  12 38 00.487   +22 59 24.91  .01031 1.0169 112.9 18.5 8.83  79
2020 05 24 17  12 41 58.531   +23 18 57.29  .01024 1.0170 113.4 18.4 9.36  79
2020 05 24 18  12 46 00.976   +23 38 22.35  .01017 1.0170 113.9 18.4 9.91  79
2020 05 24 19  12 50 07.792   +23 57 38.30  .01011 1.0171 114.4 18.4 10.5  79
2020 05 24 20  12 54 18.936   +24 16 43.31  .01005 1.0172 114.9 18.4 11.0  79
2020 05 24 21  12 58 34.350   +24 35 35.47  .00999 1.0172 115.4 18.3 11.6  80
2020 05 24 22  13 02 53.965   +24 54 12.85  .00993 1.0173 115.9 18.3 12.2  80
2020 05 24 23  13 07 17.695   +25 12 33.45  .00988 1.0173 116.4 18.3 12.8  80
2020 05 25 00  13 11 45.441   +25 30 35.27  .00983 1.0174 116.9 18.2 13.4  80
2020 05 25 01  13 16 17.089   +25 48 16.29  .00979 1.0175 117.4 18.2 14.1  81
2020 05 25 02  13 20 52.509   +26 05 34.48  .00975 1.0175 117.9 18.2 14.7  81
2020 05 25 03  13 25 31.554   +26 22 27.81  .00971 1.0176 118.4 18.2 15.4  81
2020 05 25 04  13 30 14.063   +26 38 54.29  .00968 1.0177 118.9 18.2 16.0  82
2020 05 25 05  13 34 59.860   +26 54 51.95  .00964 1.0177 119.3 18.1 16.6  82
2020 05 25 06  13 39 48.750   +27 10 18.88  .00962 1.0178 119.8 18.1 17.3  82
2020 05 25 07  13 44 40.526   +27 25 13.21  .00959 1.0178 120.3 18.1 18.0  83
2020 05 25 08  13 49 34.967   +27 39 33.17  .00957 1.0179 120.8 18.1 18.6  83
2020 05 25 09  13 54 31.835   +27 53 17.07  .00956 1.0180 121.2 18.1 19.3  84
2020 05 25 10  13 59 30.881   +28 06 23.32  .00954 1.0180 121.7 18.0 19.9  84
2020 05 25 11  14 04 31.845   +28 18 50.47  .00953 1.0181 122.1 18.0 20.5  85